AEZ2135 LICB-LIMZ

Flight info

Callsign AEZ2135
Flight time 1h 26m
Altitude 32000
Route ENEPA DCT DORAS DCT TINTO DCT DOBIM R16 GUNPI DCT LAGEN
Aircraft B738/M-SDE2E3FGHIRWXY/LB1

Departure

Time 2026-05-05 06:39
Airport Comiso Airport (LICB)

Arrival

Time 2026-05-05 08:05
Airport Cuneo International Airport (LIMZ)
Time Latitude Longitude Altitude Speed Heading
2026-05-05 06:31 36.99807 14.60798 720 ft 0 kts 346°
2026-05-05 06:35 36.99808 14.60798 720 ft 1 kts 349°
2026-05-05 06:36 36.99811 14.60814 724 ft 3 kts 116°
2026-05-05 06:36 36.99789 14.60857 720 ft 7 kts 87°
2026-05-05 06:36 36.99823 14.60928 719 ft 14 kts 49°
2026-05-05 06:36 36.99904 14.61047 720 ft 22 kts 50°
2026-05-05 06:37 37.00019 14.61221 720 ft 29 kts 50°
2026-05-05 06:37 37.00166 14.61439 721 ft 36 kts 49°
2026-05-05 06:37 37.00329 14.61682 719 ft 36 kts 50°
2026-05-05 06:37 37.00295 14.61853 718 ft 23 kts 142°
2026-05-05 06:38 37.00188 14.61795 719 ft 19 kts 229°
2026-05-05 06:38 36.99998 14.61512 722 ft 77 kts 230°
2026-05-05 06:38 36.99511 14.60783 722 ft 140 kts 230°
2026-05-05 06:38 36.98788 14.59716 987 ft 169 kts 229°
2026-05-05 06:39 36.98019 14.58614 1813 ft 166 kts 221°
2026-05-05 06:39 36.96947 14.58060 2399 ft 181 kts 179°
2026-05-05 06:39 36.95747 14.58690 2904 ft 200 kts 138°
2026-05-05 06:39 36.94978 14.60150 3579 ft 206 kts 108°
2026-05-05 06:40 36.94903 14.61934 4109 ft 217 kts 76°
2026-05-05 06:40 36.95659 14.63611 4559 ft 232 kts 44°
2026-05-05 06:40 36.97112 14.64668 4846 ft 258 kts 14°
2026-05-05 06:40 36.98929 14.64683 5429 ft 268 kts 344°
2026-05-05 06:41 37.00563 14.63583 6287 ft 271 kts 317°
2026-05-05 06:41 37.01708 14.61709 7167 ft 272 kts 303°
2026-05-05 06:41 37.02708 14.59709 8088 ft 271 kts 303°
2026-05-05 06:41 37.03712 14.57687 8873 ft 275 kts 303°
2026-05-05 06:42 37.04725 14.55642 9707 ft 278 kts 303°
2026-05-05 06:42 37.05740 14.53585 10583 ft 275 kts 303°
2026-05-05 06:42 37.06749 14.51549 11390 ft 277 kts 302°
2026-05-05 06:42 37.07935 14.49618 12034 ft 284 kts 322°
2026-05-05 06:43 37.09748 14.48660 12783 ft 288 kts 347°
2026-05-05 06:43 37.11725 14.48130 13511 ft 292 kts 343°
2026-05-05 06:43 37.13673 14.47342 14180 ft 296 kts 336°
2026-05-05 06:43 37.15566 14.46301 14842 ft 298 kts 332°
2026-05-05 06:44 37.17418 14.45105 15451 ft 303 kts 330°
2026-05-05 06:44 37.19333 14.43790 15619 ft 325 kts 329°
2026-05-05 06:44 37.21366 14.42365 15752 ft 345 kts 328°
2026-05-05 06:44 37.23494 14.40800 15909 ft 363 kts 327°
2026-05-05 06:45 37.25683 14.39146 16031 ft 381 kts 327°
2026-05-05 06:45 37.27990 14.37390 16302 ft 392 kts 327°
2026-05-05 06:45 37.30334 14.35609 16802 ft 396 kts 327°
2026-05-05 06:45 37.32703 14.33812 17399 ft 398 kts 327°
2026-05-05 06:46 37.35082 14.32011 17956 ft 401 kts 327°
2026-05-05 06:46 37.37481 14.30195 18454 ft 405 kts 327°
2026-05-05 06:46 37.39904 14.28362 18901 ft 408 kts 327°
2026-05-05 06:46 37.42342 14.26516 19380 ft 410 kts 327°
2026-05-05 06:47 37.44790 14.24663 19852 ft 412 kts 327°
2026-05-05 06:47 37.47255 14.22794 20307 ft 415 kts 327°
2026-05-05 06:47 37.49741 14.20909 20756 ft 418 kts 327°
2026-05-05 06:47 37.52245 14.19007 21158 ft 422 kts 327°
2026-05-05 06:48 37.54763 14.17094 21602 ft 424 kts 327°
2026-05-05 06:48 37.57295 14.15169 22052 ft 426 kts 327°
2026-05-05 06:48 37.59846 14.13228 22472 ft 429 kts 327°
2026-05-05 06:48 37.62406 14.11277 22858 ft 432 kts 327°
2026-05-05 06:49 37.64988 14.09310 23244 ft 434 kts 327°
2026-05-05 06:49 37.67577 14.07334 23624 ft 437 kts 327°
2026-05-05 06:49 37.70189 14.05340 23968 ft 439 kts 327°
2026-05-05 06:49 37.72804 14.03342 24330 ft 440 kts 327°
2026-05-05 06:50 37.75426 14.01336 24686 ft 441 kts 327°
2026-05-05 06:50 37.78022 13.99352 25006 ft 443 kts 327°
2026-05-05 06:50 37.80709 13.97330 25338 ft 444 kts 327°
2026-05-05 06:50 37.83346 13.95368 25637 ft 446 kts 327°
2026-05-05 06:51 37.86021 13.93387 25960 ft 447 kts 327°
2026-05-05 06:51 37.88716 13.91388 26290 ft 449 kts 327°
2026-05-05 06:51 37.91409 13.89388 26637 ft 449 kts 327°
2026-05-05 06:51 37.94100 13.87384 27064 ft 447 kts 327°
2026-05-05 06:52 37.96772 13.85391 27553 ft 444 kts 327°
2026-05-05 06:52 37.99435 13.83401 27932 ft 445 kts 327°
2026-05-05 06:52 38.02101 13.81405 28292 ft 445 kts 327°
2026-05-05 06:52 38.04759 13.79414 28753 ft 442 kts 327°
2026-05-05 06:53 38.07405 13.77430 29243 ft 440 kts 327°
2026-05-05 06:53 38.10032 13.75458 29643 ft 440 kts 327°
2026-05-05 06:53 38.12672 13.73473 29927 ft 442 kts 327°
2026-05-05 06:53 38.15319 13.71482 30282 ft 441 kts 327°
2026-05-05 06:54 38.17952 13.69502 30717 ft 438 kts 326°
2026-05-05 06:54 38.20565 13.67534 31149 ft 434 kts 326°
2026-05-05 06:54 38.23126 13.65604 31522 ft 432 kts 326°
2026-05-05 06:54 38.25712 13.63654 31859 ft 432 kts 326°
2026-05-05 06:55 38.28297 13.61701 32127 ft 432 kts 326°
2026-05-05 06:55 38.33528 13.57743 32121 ft 441 kts 326°
2026-05-05 06:56 38.38831 13.53725 32108 ft 444 kts 326°
2026-05-05 06:56 38.44143 13.49698 32123 ft 444 kts 326°
2026-05-05 06:57 38.49447 13.45668 32108 ft 443 kts 325°
2026-05-05 06:57 38.54744 13.41636 32112 ft 442 kts 325°
2026-05-05 06:58 38.60018 13.37616 32123 ft 441 kts 325°
2026-05-05 06:58 38.65279 13.33597 32117 ft 440 kts 325°
2026-05-05 06:59 38.70535 13.29574 32117 ft 439 kts 325°
2026-05-05 06:59 38.75744 13.25581 32119 ft 439 kts 325°
2026-05-05 07:00 38.80983 13.21558 32121 ft 438 kts 325°
2026-05-05 07:00 38.86181 13.17560 32130 ft 438 kts 324°
2026-05-05 07:01 38.91397 13.13541 32122 ft 437 kts 324°
2026-05-05 07:01 38.96623 13.09508 32117 ft 437 kts 324°
2026-05-05 07:02 39.01843 13.05471 32120 ft 438 kts 324°
2026-05-05 07:02 39.07069 13.01423 32116 ft 438 kts 324°
2026-05-05 07:03 39.12290 12.97374 32122 ft 438 kts 323°
2026-05-05 07:03 39.17475 12.93343 32113 ft 437 kts 323°
2026-05-05 07:04 39.22675 12.89295 32115 ft 436 kts 323°
2026-05-05 07:04 39.27868 12.85244 32117 ft 436 kts 323°
2026-05-05 07:05 39.33046 12.81198 32134 ft 435 kts 323°
2026-05-05 07:05 39.38221 12.77149 32117 ft 434 kts 323°
2026-05-05 07:06 39.43375 12.73108 32117 ft 433 kts 322°
2026-05-05 07:06 39.48520 12.69066 32117 ft 432 kts 322°
2026-05-05 07:07 39.53655 12.65026 32107 ft 431 kts 322°
2026-05-05 07:07 39.58778 12.60988 32127 ft 431 kts 322°
2026-05-05 07:08 39.63895 12.56946 32104 ft 431 kts 322°
2026-05-05 07:08 39.68153 12.53579 32101 ft 431 kts 322°
2026-05-05 07:09 39.73272 12.49524 32109 ft 431 kts 322°
2026-05-05 07:09 39.78384 12.45467 32097 ft 431 kts 322°
2026-05-05 07:10 39.83496 12.41403 32098 ft 431 kts 322°
2026-05-05 07:10 39.88630 12.37314 32097 ft 432 kts 322°
2026-05-05 07:11 39.93766 12.33216 32097 ft 433 kts 322°
2026-05-05 07:11 39.98885 12.29125 32093 ft 435 kts 322°
2026-05-05 07:12 40.04045 12.24994 32089 ft 435 kts 322°
2026-05-05 07:12 40.09218 12.20846 32090 ft 436 kts 322°
2026-05-05 07:13 40.14388 12.16692 32089 ft 436 kts 322°
2026-05-05 07:13 40.19559 12.12530 32086 ft 436 kts 321°
2026-05-05 07:14 40.24696 12.08387 32086 ft 436 kts 321°
2026-05-05 07:14 40.29862 12.04215 32095 ft 436 kts 321°
2026-05-05 07:15 40.35029 12.00032 32085 ft 437 kts 321°
2026-05-05 07:15 40.40201 11.95837 32082 ft 438 kts 321°
2026-05-05 07:16 40.45384 11.91627 32081 ft 438 kts 321°
2026-05-05 07:16 40.50570 11.87407 32076 ft 439 kts 321°
2026-05-05 07:17 40.55777 11.83161 32076 ft 440 kts 321°
2026-05-05 07:17 40.60984 11.78908 32079 ft 441 kts 321°
2026-05-05 07:18 40.66201 11.74640 32066 ft 441 kts 321°
2026-05-05 07:18 40.71374 11.70399 32068 ft 441 kts 321°
2026-05-05 07:19 40.76581 11.66123 32083 ft 441 kts 320°
2026-05-05 07:19 40.81785 11.61840 32070 ft 442 kts 320°
2026-05-05 07:20 40.87005 11.57535 32056 ft 442 kts 320°
2026-05-05 07:20 40.92224 11.53224 32059 ft 443 kts 320°
2026-05-05 07:21 40.97449 11.48900 32058 ft 443 kts 320°
2026-05-05 07:21 41.02674 11.44568 32060 ft 444 kts 319°
2026-05-05 07:22 41.07904 11.40223 32046 ft 444 kts 319°
2026-05-05 07:22 41.13137 11.35867 32048 ft 444 kts 319°
2026-05-05 07:23 41.18378 11.31497 32045 ft 444 kts 319°
2026-05-05 07:23 41.23613 11.27122 32059 ft 445 kts 319°
2026-05-05 07:24 41.28861 11.22729 32041 ft 445 kts 319°
2026-05-05 07:24 41.34104 11.18332 32034 ft 445 kts 319°
2026-05-05 07:25 41.39342 11.13929 32034 ft 445 kts 319°
2026-05-05 07:25 41.44572 11.09525 32033 ft 445 kts 319°
2026-05-05 07:26 41.49761 11.05131 32038 ft 444 kts 319°
2026-05-05 07:26 41.54947 11.00627 32025 ft 444 kts 319°
2026-05-05 07:27 41.60104 10.96115 32019 ft 443 kts 319°
2026-05-05 07:27 41.65266 10.91598 32019 ft 443 kts 319°
2026-05-05 07:28 41.70431 10.87078 32036 ft 443 kts 319°
2026-05-05 07:28 41.75592 10.82556 32011 ft 443 kts 319°
2026-05-05 07:29 41.80747 10.78031 32008 ft 443 kts 319°
2026-05-05 07:29 41.85902 10.73495 32017 ft 443 kts 319°
2026-05-05 07:30 41.91051 10.68957 32016 ft 443 kts 320°
2026-05-05 07:30 41.98777 10.62130 31992 ft 443 kts 320°
2026-05-05 07:31 42.03919 10.57575 31995 ft 443 kts 320°
2026-05-05 07:31 42.09067 10.53005 31998 ft 443 kts 320°
2026-05-05 07:32 42.14178 10.48461 32003 ft 443 kts 320°
2026-05-05 07:32 42.19332 10.43868 31990 ft 444 kts 320°
2026-05-05 07:33 42.24493 10.39260 31975 ft 444 kts 320°
2026-05-05 07:33 42.29650 10.34647 31976 ft 445 kts 320°
2026-05-05 07:34 42.34807 10.30025 31986 ft 445 kts 320°
2026-05-05 07:34 42.39970 10.25387 31964 ft 445 kts 320°
2026-05-05 07:35 42.45134 10.20740 31968 ft 445 kts 320°
2026-05-05 07:35 42.50285 10.16094 31969 ft 445 kts 320°
2026-05-05 07:36 42.55407 10.11466 31964 ft 445 kts 320°
2026-05-05 07:36 42.60561 10.06799 31974 ft 446 kts 321°
2026-05-05 07:37 42.65728 10.02111 31965 ft 446 kts 320°
2026-05-05 07:37 42.70888 9.97420 31967 ft 446 kts 320°
2026-05-05 07:38 42.76042 9.92724 31958 ft 446 kts 320°
2026-05-05 07:38 42.81206 9.88010 31974 ft 447 kts 321°
2026-05-05 07:39 42.86378 9.83278 31989 ft 448 kts 320°
2026-05-05 07:39 42.91548 9.78540 31968 ft 448 kts 320°
2026-05-05 07:40 42.96727 9.73802 31960 ft 448 kts 321°
2026-05-05 07:40 43.02020 9.69282 31985 ft 449 kts 322°
2026-05-05 07:41 43.07334 9.64848 31970 ft 450 kts 323°
2026-05-05 07:41 43.12665 9.60361 31961 ft 450 kts 322°
2026-05-05 07:42 43.17987 9.55840 31963 ft 450 kts 322°
2026-05-05 07:42 43.23314 9.51294 31954 ft 451 kts 322°
2026-05-05 07:43 43.28650 9.46729 31955 ft 452 kts 322°
2026-05-05 07:43 43.33997 9.42147 31961 ft 453 kts 322°
2026-05-05 07:44 43.39351 9.37549 31952 ft 454 kts 322°
2026-05-05 07:44 43.44714 9.32934 31950 ft 455 kts 322°
2026-05-05 07:45 43.50098 9.28292 31954 ft 457 kts 322°
2026-05-05 07:45 43.55482 9.23639 31943 ft 458 kts 322°
2026-05-05 07:46 43.60877 9.18967 31945 ft 458 kts 322°
2026-05-05 07:46 43.66281 9.14277 31941 ft 459 kts 322°
2026-05-05 07:47 43.71684 9.09578 31939 ft 459 kts 323°
2026-05-05 07:47 43.77114 9.04842 31429 ft 467 kts 322°
2026-05-05 07:48 43.79853 9.02450 30758 ft 465 kts 322°
2026-05-05 07:48 43.82560 9.00085 30016 ft 465 kts 323°
2026-05-05 07:48 43.85298 8.97690 29117 ft 465 kts 323°
2026-05-05 07:48 43.88032 8.95296 28272 ft 465 kts 323°
2026-05-05 07:49 43.90770 8.92895 27402 ft 466 kts 323°
2026-05-05 07:49 43.93510 8.90490 26654 ft 465 kts 323°
2026-05-05 07:49 43.96229 8.88103 26035 ft 460 kts 323°
2026-05-05 07:49 43.98921 8.85737 25418 ft 457 kts 323°
2026-05-05 07:50 44.01600 8.83378 24809 ft 453 kts 324°
2026-05-05 07:50 44.04258 8.81034 24202 ft 451 kts 324°
2026-05-05 07:50 44.06900 8.78702 23594 ft 448 kts 324°
2026-05-05 07:50 44.09528 8.76379 22892 ft 447 kts 324°
2026-05-05 07:51 44.12140 8.74069 22236 ft 444 kts 324°
2026-05-05 07:51 44.14733 8.71772 21607 ft 441 kts 324°
2026-05-05 07:51 44.17311 8.69488 21008 ft 437 kts 323°
2026-05-05 07:51 44.19870 8.67217 20392 ft 434 kts 323°
2026-05-05 07:52 44.21560 8.65716 20002 ft 433 kts 323°
2026-05-05 07:52 44.24085 8.63471 19517 ft 430 kts 323°
2026-05-05 07:52 44.26610 8.61223 18800 ft 428 kts 323°
2026-05-05 07:52 44.29121 8.58985 18176 ft 427 kts 323°
2026-05-05 07:53 44.32426 8.56036 17308 ft 424 kts 323°
2026-05-05 07:53 44.34907 8.53821 16676 ft 421 kts 323°
2026-05-05 07:53 44.36569 8.52337 16267 ft 419 kts 323°
2026-05-05 07:53 44.39009 8.50133 15675 ft 415 kts 321°
2026-05-05 07:54 44.41121 8.47467 15069 ft 406 kts 308°
2026-05-05 07:54 44.42942 8.44490 14502 ft 401 kts 306°
2026-05-05 07:54 44.44708 8.41550 13939 ft 398 kts 307°
2026-05-05 07:54 44.46489 8.38616 13481 ft 391 kts 307°
2026-05-05 07:55 44.48233 8.35787 13332 ft 377 kts 308°
2026-05-05 07:55 44.49924 8.33070 13156 ft 364 kts 308°
2026-05-05 07:55 44.51560 8.30452 13014 ft 351 kts 307°
2026-05-05 07:55 44.53146 8.27917 12871 ft 339 kts 307°
2026-05-05 07:56 44.54678 8.25467 12745 ft 329 kts 307°
2026-05-05 07:56 44.56161 8.23092 12605 ft 318 kts 307°
2026-05-05 07:56 44.57596 8.20792 12472 ft 309 kts 307°
2026-05-05 07:56 44.59003 8.18527 12190 ft 306 kts 307°
2026-05-05 07:57 44.60394 8.16283 11896 ft 304 kts 307°
2026-05-05 07:57 44.61782 8.14039 11583 ft 303 kts 307°
2026-05-05 07:57 44.63160 8.11809 11295 ft 302 kts 307°
2026-05-05 07:57 44.64524 8.09605 11156 ft 296 kts 307°
2026-05-05 07:58 44.65854 8.07454 10998 ft 290 kts 307°
2026-05-05 07:58 44.67166 8.05334 10862 ft 283 kts 307°
2026-05-05 07:58 44.68454 8.03247 10572 ft 281 kts 307°
2026-05-05 07:58 44.69723 8.01197 10297 ft 274 kts 307°
2026-05-05 07:59 44.70958 7.99202 10016 ft 268 kts 307°
2026-05-05 07:59 44.72174 7.97233 9852 ft 264 kts 307°
2026-05-05 07:59 44.73366 7.95303 9723 ft 258 kts 307°
2026-05-05 07:59 44.74514 7.93443 9606 ft 252 kts 307°
2026-05-05 08:00 44.75389 7.91411 9460 ft 237 kts 279°
2026-05-05 08:00 44.75410 7.89134 9018 ft 238 kts 253°
2026-05-05 08:00 44.74798 7.86963 8505 ft 243 kts 239°
2026-05-05 08:00 44.73901 7.84926 7968 ft 245 kts 236°
2026-05-05 08:01 44.72955 7.82929 7408 ft 246 kts 236°
2026-05-05 08:01 44.72011 7.80914 6821 ft 245 kts 237°
2026-05-05 08:01 44.71086 7.78904 6207 ft 245 kts 238°
2026-05-05 08:01 44.70178 7.76912 5568 ft 245 kts 238°
2026-05-05 08:02 44.69072 7.75121 4960 ft 244 kts 218°
2026-05-05 08:02 44.67657 7.73825 4385 ft 241 kts 212°
2026-05-05 08:02 44.66229 7.72607 3840 ft 238 kts 212°
2026-05-05 08:02 44.64856 7.71387 3462 ft 228 kts 213°
2026-05-05 08:03 44.63554 7.70218 3153 ft 217 kts 213°
2026-05-05 08:03 44.62308 7.69100 2850 ft 207 kts 213°
2026-05-05 08:03 44.61127 7.68041 2582 ft 196 kts 213°
2026-05-05 08:03 44.60021 7.67052 2361 ft 181 kts 213°
2026-05-05 08:04 44.58980 7.66132 2059 ft 173 kts 213°
2026-05-05 08:04 44.58024 7.65257 1899 ft 154 kts 214°
2026-05-05 08:04 44.57161 7.64486 1671 ft 141 kts 212°
2026-05-05 08:04 44.56357 7.63763 1458 ft 136 kts 213°
2026-05-05 08:05 44.55549 7.63032 1272 ft 139 kts 213°
2026-05-05 08:05 44.54789 7.62357 1253 ft 106 kts 212°
2026-05-05 08:05 44.54342 7.61964 1267 ft 45 kts 212°
2026-05-05 08:05 44.54119 7.61762 1270 ft 34 kts 213°
2026-05-05 08:06 44.54008 7.61646 1274 ft 10 kts 265°
2026-05-05 08:06 44.54058 7.61590 1273 ft 10 kts 341°
2026-05-05 08:06 44.54132 7.61565 1271 ft 14 kts 347°
2026-05-05 08:06 44.54242 7.61600 1269 ft 19 kts 32°
2026-05-05 08:07 44.54365 7.61708 1268 ft 22 kts 32°
2026-05-05 08:07 44.54497 7.61826 1261 ft 23 kts 32°
2026-05-05 08:07 44.54610 7.61926 1260 ft 16 kts 22°
2026-05-05 08:07 44.54692 7.61876 1264 ft 6 kts 340°
2026-05-05 08:08 44.54694 7.61875 1263 ft 0 kts 340°